Weather History for Papa, Hungary

Change the Weather History Date:

Tuesday, October 16, 2012

  Actual Average Record
Temperature  
Mean Temperature 47 °F -  
Max Temperature 48 °F - - ()
Min Temperature 46 °F - - ()
Degree Days  
Heating Degree Days 18    
Moisture  
Dew Point 45 °F    
Average Humidity 95    
Maximum Humidity 100    
Minimum Humidity 82    
Precipitation  
Precipitation 0.00 in - - ()
Sea Level Pressure  
Sea Level Pressure 29.88 in    
Wind  
Wind Speed 8 mph ()    
Max Wind Speed 16 mph    
Max Gust Speed -    
Visibility 4.0 miles    
Events Rain    
T = Trace of Precipitation, MM = Missing Value Source: Averaged Metar Reports

Daily Weather History Graph

Daily Weather History Graph

Search for Another Location

Airport:

Trip Planner

Search our weather history database for the weather conditions in past years. The results will help you decide how hot, cold, wet, or windy it might be!

Date:

Astronomy

Oct. 16, 2012 Rise Set
Actual Time 7:10 AM CEST 5:59 PM CEST
Civil Twilight 6:39 AM CEST 6:30 PM CEST
Nautical Twilight 6:03 AM CEST 7:06 PM CEST
Astronomical Twilight 5:28 AM CEST 7:41 PM CEST
Moon 8:19 AM CEST (10/16) 6:21 PM CEST (10/16)
Length of Visible Light 11h 51m
Length of Day
10h 49m
New Moon, 1% of the Moon is Illuminated
Oct 16
New Moon
Oct 22
First Quarter
Oct 29
Full
Nov 7
Last Quarter
Nov 13
New

Hourly Weather History & Observations

Time (CEST) Temp. Windchill Dew Point Humidity Pressure Visibility Wind Dir Wind Speed Gust Speed Precip Events Conditions
12:15 AM 48.2 °F - 46.4 °F 93% 29.89 in 5.0 mi North 11.2 mph - N/A Rain Rain
12:39 AM 46.4 °F 42.0 °F 46.4 °F 100% 29.86 in 3.1 mi North 8.9 mph - N/A Rain Rain
12:45 AM 46.4 °F 41.2 °F 46.4 °F 100% 29.89 in 3.1 mi North 11.2 mph - N/A Rain Rain
1:15 AM 46.4 °F 43.0 °F 46.4 °F 100% 29.89 in 3.1 mi North 6.7 mph - N/A Rain Rain
1:45 AM 46.4 °F 42.0 °F 46.4 °F 100% 29.89 in 3.1 mi North 8.9 mph - N/A Rain Light Rain
2:15 AM 46.4 °F 42.0 °F 46.4 °F 100% 29.89 in 3.1 mi North 8.9 mph - N/A Rain Light Rain
2:45 AM 46.4 °F 43.0 °F 46.4 °F 100% 29.89 in 3.1 mi North 6.7 mph - N/A Rain Light Rain
3:15 AM 46.4 °F 43.0 °F 46.4 °F 100% 29.86 in 3.7 mi North 6.7 mph - N/A Rain Light Rain
3:20 AM 46.4 °F 43.0 °F 44.6 °F 93% 29.86 in 5.0 mi North 6.7 mph - N/A   Overcast
3:45 AM - - - N/A% - 6.2 mi North 6.7 mph - N/A   Overcast
4:15 AM 46.4 °F 42.0 °F 46.4 °F 100% 29.86 in 5.0 mi North 8.9 mph - N/A   Overcast
4:45 AM 46.4 °F 42.0 °F 46.4 °F 100% 29.86 in 5.0 mi North 8.9 mph - N/A   Overcast
5:15 AM 46.4 °F 43.0 °F 46.4 °F 100% 29.83 in 5.0 mi North 6.7 mph - N/A   Overcast
5:43 AM 46.4 °F 43.0 °F 46.4 °F 100% 29.83 in 3.7 mi NNW 6.7 mph - N/A Rain Light Rain
5:45 AM 46.4 °F 43.0 °F 44.6 °F 93% 29.83 in 3.7 mi North 6.7 mph - N/A Rain Light Rain
6:15 AM 46.4 °F 42.0 °F 44.6 °F 93% 29.83 in 3.7 mi NNW 8.9 mph - N/A Rain Light Rain
6:43 AM 46.4 °F 42.0 °F 44.6 °F 93% 29.83 in 3.7 mi North 8.9 mph - N/A Rain Light Rain
6:45 AM - - - N/A% - 6.2 mi NNW 8.9 mph - N/A   Overcast
6:50 AM - - - N/A% - 6.2 mi NNW 8.9 mph - N/A   Mostly Cloudy
7:15 AM 46.4 °F 42.0 °F 46.4 °F 100% 29.83 in 3.7 mi North 8.9 mph - N/A Rain Light Rain
7:45 AM 46.4 °F 41.2 °F 46.4 °F 100% 29.80 in 3.1 mi North 11.2 mph - N/A Rain Light Rain
8:09 AM 46.4 °F 41.2 °F 46.4 °F 100% 29.80 in 1.9 mi North 11.2 mph - N/A Rain Rain
8:15 AM 46.4 °F 41.2 °F 46.4 °F 100% 29.80 in 1.9 mi North 11.2 mph - N/A Rain Rain
8:45 AM 46.4 °F 41.2 °F 46.4 °F 100% 29.83 in 1.9 mi North 11.2 mph - N/A Rain Rain
9:00 AM - - - N/A% - 5.0 mi NNW 8.9 mph - N/A Rain Light Rain
9:15 AM 46.4 °F 41.2 °F 46.4 °F 100% 29.83 in 1.9 mi North 11.2 mph - N/A Rain Rain
9:45 AM - - - N/A% - 5.0 mi North 11.2 mph - N/A Rain Light Rain
10:15 AM 46.4 °F 40.5 °F 44.6 °F 93% 29.80 in 1.9 mi NNW 13.4 mph - N/A Rain Rain
10:45 AM 46.4 °F 40.5 °F 44.6 °F 93% 29.80 in 1.9 mi NNW 13.4 mph - N/A Rain Rain
11:15 AM 46.4 °F 39.9 °F 44.6 °F 93% 29.80 in 1.9 mi North 15.7 mph - N/A Rain Rain
11:45 AM 46.4 °F 39.9 °F 46.4 °F 100% 29.80 in 1.9 mi NNW 15.7 mph - N/A Rain Rain
12:15 PM 46.4 °F 40.5 °F 44.6 °F 93% 29.80 in 1.9 mi NNW 13.4 mph - N/A Rain Rain
12:45 PM - - - N/A% - 3.7 mi North 11.2 mph - N/A Rain Light Rain
1:15 PM 46.4 °F 41.2 °F 46.4 °F 100% 29.83 in 2.5 mi NW 11.2 mph - N/A Rain Rain
1:45 PM 46.4 °F 40.5 °F 44.6 °F 93% 29.83 in 2.5 mi NW 13.4 mph - N/A Rain Light Rain
2:15 PM 46.4 °F 42.0 °F 46.4 °F 100% 29.86 in 2.2 mi West 8.9 mph - N/A Rain Rain
2:45 PM 46.4 °F 41.2 °F 46.4 °F 100% 29.86 in 2.2 mi WNW 11.2 mph - N/A Rain Rain
3:15 PM 46.4 °F 41.2 °F 46.4 °F 100% 29.83 in 2.5 mi NW 11.2 mph - N/A Rain Light Rain
3:45 PM - - - N/A% - 6.2 mi NW 11.2 mph - N/A   Mostly Cloudy
4:08 PM 46.4 °F 41.2 °F 44.6 °F 93% 29.89 in 6.2 mi West 11.2 mph - N/A   Mostly Cloudy
4:15 PM 46.4 °F 40.5 °F 44.6 °F 93% 29.89 in 6.2 mi WNW 13.4 mph - N/A   Mostly Cloudy
4:45 PM 46.4 °F 41.2 °F 44.6 °F 93% 29.89 in 6.2 mi West 11.2 mph - N/A   Mostly Cloudy
5:15 PM 48.2 °F - 42.8 °F 82% 29.89 in 6.2 mi NW 13.4 mph - N/A   Mostly Cloudy
5:45 PM 46.4 °F 41.2 °F 42.8 °F 87% 29.92 in 6.2 mi NW 11.2 mph - N/A   Mostly Cloudy
6:15 PM 46.4 °F 44.4 °F 42.8 °F 87% 29.92 in 6.2 mi WNW 4.5 mph - N/A   Mostly Cloudy
6:45 PM - - - N/A% - 6.2 mi Variable 4.5 mph - N/A   Mostly Cloudy
7:15 PM 48.2 °F - 42.8 °F 82% 29.95 in 6.2 mi NW 8.9 mph - N/A   Mostly Cloudy
8:15 PM 46.4 °F 44.4 °F 42.8 °F 87% 29.95 in - West 4.5 mph - N/A   Clear
8:45 PM 46.4 °F 44.4 °F 42.8 °F 87% 29.98 in - West 4.5 mph - N/A   Clear
8:57 PM 46.4 °F 43.0 °F 44.6 °F 93% 29.98 in 6.2 mi WSW 6.7 mph - N/A Rain Light Rain
9:15 PM 46.4 °F 43.0 °F 42.8 °F 87% 29.98 in 6.2 mi WSW 6.7 mph - N/A Rain Light Rain
9:45 PM - - - N/A% - 1.9 mi SSW 6.7 mph - N/A   Clear
10:15 PM 46.4 °F - 44.6 °F 93% 30.01 in - SW 2.2 mph - N/A   Clear
10:45 PM 46.4 °F - 44.6 °F 93% 30.01 in - SW 2.2 mph - N/A   Clear
11:15 PM 46.4 °F - 44.6 °F 93% 30.01 in - South 2.2 mph - N/A   Clear
11:45 PM 46.4 °F - 44.6 °F 93% 30.01 in - South 2.2 mph - N/A   Clear